This is the latest recevied weather packets stored in our database for station/object JS1SZZ-13. If no packets are shown the sender has not sent any weather packets the latest 10 day(s).
| Time | Temp. | Humidity | Pressure | Rain* | Wind** | Luminosity | Snow |
|---|---|---|---|---|---|---|---|
| 1777850399 | 17.78° C | 85% | 997.7 hPa | 0 mm | - | - | - |
| 1777849500 | 17.22° C | 87% | 997.5 hPa | 0 mm | - | - | - |
| 1777848600 | 15.56° C | 88% | 997.7 hPa | 0 mm | - | - | - |
| 1777847699 | 16.11° C | 89% | 998.2 hPa | 0 mm | - | - | - |
| 1777846799 | 15.56° C | 90% | 998.1 hPa | 0 mm | - | - | - |
| 1777845901 | 15° C | 92% | 998.4 hPa | 0 mm | - | - | - |
| 1777845000 | 14.44° C | 93% | 998 hPa | 0 mm | - | - | - |
| 1777844099 | 14.44° C | 95% | 998.1 hPa | 0 mm | - | - | - |
| 1777843200 | 13.89° C | 95% | 998.4 hPa | 0.25 mm | - | - | - |
| 1777842300 | 13.33° C | 94% | 998.3 hPa | 0.76 mm | - | - | - |
| 1777841399 | 12.78° C | 95% | 998.7 hPa | 2.54 mm | - | - | - |
| 1777840501 | 12.78° C | 95% | 998.6 hPa | 2.79 mm | - | - | - |
| 1777839600 | 12.78° C | 95% | 998.6 hPa | 2.54 mm | - | - | - |
| 1777838699 | 12.78° C | 95% | 998.4 hPa | 2.29 mm | - | - | - |
| 1777837801 | 12.78° C | 95% | 998.4 hPa | 0.51 mm | - | - | - |
| 1777836900 | 12.78° C | 95% | 998.5 hPa | 0.25 mm | - | - | - |
| 1777835999 | 12.78° C | 95% | 998.6 hPa | 0.51 mm | - | - | - |
| 1777835100 | 12.78° C | 95% | 998.8 hPa | 0.25 mm | - | - | - |
| 1777834200 | 12.78° C | 94% | 998.8 hPa | 0.51 mm | - | - | - |
| 1777833299 | 12.78° C | 94% | 999.3 hPa | 0.76 mm | - | - | - |
| 1777832401 | 12.78° C | 94% | 999.6 hPa | 0.76 mm | - | - | - |
| 1777831500 | 12.78° C | 94% | 999.7 hPa | 1.02 mm | - | - | - |
| 1777830600 | 12.78° C | 94% | 999.8 hPa | 0.76 mm | - | - | - |
| 1777829699 | 12.78° C | 94% | 1000.2 hPa | 0.76 mm | - | - | - |
| 1777828801 | 12.78° C | 94% | 1000.4 hPa | 0.51 mm | - | - | - |
* Rain latest hour (hover to see other rain measurements)
** Current wind speed in m/s (hover to see current wind gust speed)